Regional Weather Roundup
Issued by NWS

Home | Current Version | Previous Version | Graphics & Text | Print | Product List | Glossary On
Versions: 1 2 3 4 5 6 7 8 9 10 11 12 13 14 15 16 17 18 19 20 21 22 23 24 25 26 27 28 29 30 31 32 33 34 35 36 37 38 39 40 41 42 43 44 45 46 47 48 49 50
000
ASUS43 KTOP 191859
RWRKS

WEATHER ROUNDUP FOR KANSAS
NATIONAL WEATHER SERVICE GOODLAND KS
100 PM CST SUN NOV 19 2017

NOTE:  "FAIR" INDICATES FEW OR NO CLOUDS BELOW 12,000 FEET WITH NO
SIGNIFICANT WEATHER AND/OR OBSTRUCTIONS TO VISIBILITY.

KSZ001>006-013>018-027>032-041>047-192000-
NORTHWEST KANSAS

CITY           SKY/WX    TMP DP  RH WIND       PRES   REMARKS
GOODLAND       CLOUDY    55  19  24 SW13      30.07F
HILL CITY      SUNNY     57  22  25 SW13G25   30.10F
RUSSELL        SUNNY     59  19  21 SW24      30.11F
$$

KSZ061>065-074>080-084>089-192000-
SOUTHWEST KANSAS

CITY           SKY/WX    TMP DP  RH WIND       PRES   REMARKS
DODGE CITY     SUNNY     59  17  19 SW22G35   30.14F
GARDEN CITY    SUNNY     53  20  27 SW14      30.13F
GREAT BEND     SUNNY     58  20  22 SW20G25   30.15F
LIBERAL        SUNNY     59  19  21 SW23G29   30.15F
$$

KSZ066>073-081>083-090>101-192000-
SOUTHEAST KANSAS

CITY           SKY/WX    TMP DP  RH WIND       PRES   REMARKS
CHANUTE        SUNNY     52  29  41 SW8       30.25F
COFFEYVILLE    SUNNY     53  28  38 SW8       30.26F
HUTCHINSON     SUNNY     60  21  22 SW15      30.18F
MEDICINE LODGE   N/A     59  18  20 SW12      30.19F
NEWTON         SUNNY     55  21  26 SW18      30.19F
PARSONS        SUNNY     53  30  41 SW10      30.27F
WICHITA INTL   MOSUNNY   57  22  25 S17       30.20F
WICHITA JABRA  SUNNY     56  22  26 SW13G20   30.20F
WICHITA MCCONL SUNNY     57  20  24 SW14      30.20F
WINFIELD       SUNNY     57  26  30 S13       30.24F
$$

KSZ007>012-019>026-033>040-048>060-102>105-192000-
NORTHEAST KANSAS

CITY           SKY/WX    TMP DP  RH WIND       PRES   REMARKS
CONCORDIA      SUNNY     55  22  27 SW14G22   30.13F
EMPORIA        SUNNY     55  23  28 SW10G18   30.21F
LAWRENCE       SUNNY     52  29  41 S12       30.21F
MANHATTAN      SUNNY     55  25  31 SW10G18   30.17F
OLATHE IND     SUNNY     49  27  42 SW8       30.22F
OLATHE EXE     SUNNY     47  25  42 SW7       30.22F
SALINA         SUNNY     60  22  23 SW18      30.16F
TOPEKA BILLARD SUNNY     53  29  39 S8        30.19F
TOPEKA FORBES  SUNNY     55  28  35 SW9       30.19F
$$




USA.gov is the U.S. government's official web portal to all federal, state and local government web resources and services.